| time (UTC) | temp C | wind direction | speed KPH | gust KPH | rain 1hr cm | rain 24hr cm | rain mn cm | humidity % | barometer mb |
| 20260509112116 | 20 | 293 | 4.8 | 9.7 | 0.00 | 0.36 | 0.00 | 91 | 1009.4 |
| 20260509111135 | 20 | 270 | 1.6 | 3.2 | 0.00 | 0.36 | 0.00 | 90 | 1009.2 |
| 20260509110116 | 20 | 293 | 1.6 | 4.8 | 0.00 | 0.36 | 0.00 | 89 | 1009.0 |
| 20260509105136 | 20 | 0.0 | 0.0 | 0.00 | 0.36 | 0.00 | 89 | 1008.6 | |
| 20260509104116 | 20 | 0.0 | 0.0 | 0.00 | 0.91 | 0.00 | 90 | 1008.7 | |
| 20260509103115 | 20 | 0.0 | 0.0 | 0.00 | 1.30 | 0.00 | 93 | 1008.7 | |
| 20260509102136 | 20 | 0.0 | 0.0 | 0.00 | 1.30 | 0.00 | 93 | 1008.6 | |
| 20260509101135 | 21 | 0.0 | 0.0 | 0.00 | 1.30 | 0.00 | 92 | 1008.5 | |
| 20260509100115 | 21 | 0.0 | 0.0 | 0.00 | 1.30 | 0.00 | 91 | 1008.6 | |
| 20260509095158 | 21 | 0.0 | 0.0 | 0.00 | 1.73 | 0.00 | 91 | 1008.4 | |
| 20260509094116 | 21 | 0.0 | 0.0 | 0.00 | 1.75 | 0.00 | 90 | 1008.1 | |
| 20260509093115 | 22 | 0.0 | 0.0 | 0.00 | 1.75 | 0.00 | 90 | 1008.1 | |
| 20260509092115 | 22 | 180 | 3.2 | 6.4 | 0.00 | 1.75 | 0.00 | 90 | 1007.7 |
| 20260509091115 | 22 | 135 | 1.6 | 3.2 | 0.00 | 1.75 | 0.00 | 90 | 1008.2 |
| 20260509090136 | 22 | 270 | 1.6 | 6.4 | 0.00 | 1.75 | 0.00 | 90 | 1008.4 |
| 20260509085115 | 22 | 203 | 3.2 | 6.4 | 0.00 | 1.75 | 0.00 | 90 | 1007.3 |
| 20260509084156 | 22 | 203 | 6.4 | 14.5 | 0.00 | 1.75 | 0.00 | 90 | 1006.6 |
| 20260509083115 | 22 | 180 | 9.7 | 14.5 | 0.00 | 1.78 | 0.00 | 90 | 1006.1 |
| 20260509082117 | 22 | 158 | 8.0 | 11.3 | 0.00 | 1.78 | 0.00 | 90 | 1006.6 |
| 20260509081118 | 22 | 180 | 11.3 | 22.5 | 0.00 | 1.78 | 0.00 | 89 | 1007.3 |
| 20260509080115 | 22 | 203 | 9.7 | 14.5 | 0.00 | 1.78 | 0.00 | 90 | 1007.8 |
| 20260509075117 | 22 | 180 | 8.0 | 12.9 | 0.00 | 1.78 | 0.00 | 90 | 1008.5 |
| 20260509074115 | 22 | 203 | 4.8 | 9.7 | 0.00 | 1.78 | 0.00 | 89 | 1009.3 |
| 20260509073117 | 21 | 158 | 4.8 | 8.0 | 0.00 | 1.88 | 0.00 | 90 | 1009.3 |
| 20260509072117 | 21 | 203 | 4.8 | 6.4 | 0.00 | 1.93 | 0.00 | 90 | 1009.6 |
| 20260509071117 | 21 | 203 | 1.6 | 4.8 | 0.00 | 1.98 | 0.00 | 91 | 1010.1 |
| 20260509070117 | 21 | 180 | 3.2 | 6.4 | 0.00 | 1.98 | 0.00 | 91 | 1010.2 |
| 20260509065118 | 21 | 180 | 3.2 | 4.8 | 0.00 | 1.98 | 0.00 | 91 | 1010.5 |
| 20260509064117 | 21 | 0.0 | 1.6 | 0.00 | 1.98 | 0.00 | 91 | 1010.6 | |
| 20260509063117 | 21 | 0.0 | 0.0 | 0.00 | 1.98 | 0.00 | 91 | 1010.5 | |
| 20260509062117 | 21 | 180 | 1.6 | 3.2 | 0.00 | 1.98 | 0.00 | 89 | 1010.5 |
| 20260509061117 | 21 | 0.0 | 3.2 | 0.00 | 1.98 | 0.00 | 89 | 1010.3 | |
| 20260509060118 | 21 | 180 | 1.6 | 3.2 | 0.00 | 1.98 | 0.00 | 89 | 1010.4 |
| 20260509055117 | 21 | 180 | 4.8 | 6.4 | 0.00 | 1.98 | 0.00 | 88 | 1010.4 |
| 20260509054117 | 21 | 180 | 1.6 | 3.2 | 0.00 | 1.98 | 0.00 | 88 | 1010.9 |
| 20260509053117 | 21 | 0.0 | 0.0 | 0.00 | 1.98 | 0.00 | 87 | 1011.2 | |
| 20260509052117 | 22 | 0.0 | 0.0 | 0.00 | 1.98 | 0.00 | 87 | 1011.3 | |
| 20260509051117 | 22 | 315 | 1.6 | 4.8 | 0.00 | 1.98 | 0.00 | 87 | 1011.5 |
| 20260509050117 | 22 | 338 | 4.8 | 9.7 | 0.00 | 1.98 | 0.00 | 86 | 1011.5 |
| 20260509045117 | 22 | 0.0 | 0.0 | 0.00 | 1.98 | 1.98 | 85 | 1010.3 | |
| 20260509044117 | 22 | 158 | 3.2 | 8.0 | 0.00 | 1.98 | 1.98 | 85 | 1010.2 |
| 20260509043117 | 22 | 0.0 | 0.0 | 0.00 | 1.98 | 1.98 | 85 | 1010.4 | |
| 20260509042118 | 22 | 0.0 | 1.6 | 0.00 | 1.98 | 1.98 | 84 | 1010.3 | |
| 20260509041117 | 22 | 135 | 3.2 | 6.4 | 0.00 | 1.98 | 1.98 | 83 | 1010.0 |
| 20260509040117 | 22 | 158 | 4.8 | 8.0 | 0.00 | 1.98 | 1.98 | 83 | 1009.9 |
| 20260509035117 | 23 | 180 | 3.2 | 4.8 | 0.00 | 1.98 | 1.98 | 83 | 1009.4 |
| 20260509034117 | 22 | 158 | 1.6 | 4.8 | 0.00 | 1.98 | 1.98 | 83 | 1009.9 |
| 20260509033117 | 22 | 0.0 | 0.0 | 0.00 | 1.98 | 1.98 | 83 | 1010.6 | |
| 20260509032137 | 22 | 0.0 | 3.2 | 0.00 | 1.98 | 1.98 | 83 | 1010.5 | |
| 20260509031138 | 22 | 68 | 3.2 | 4.8 | 0.00 | 1.98 | 1.98 | 83 | 1010.1 |
| 20260509030117 | 22 | 0.0 | 1.6 | 0.00 | 1.98 | 1.98 | 82 | 1009.7 | |
| 20260509025117 | 22 | 0.0 | 1.6 | 0.00 | 1.98 | 1.98 | 82 | 1009.2 | |
| 20260509024117 | 23 | 0.0 | 0.0 | 0.00 | 1.98 | 1.98 | 82 | 1009.1 | |
| 20260509023117 | 23 | 158 | 4.8 | 8.0 | 0.00 | 1.98 | 1.98 | 82 | 1008.7 |
| 20260509022117 | 23 | 158 | 9.7 | 14.5 | 0.00 | 1.98 | 1.98 | 82 | 1008.3 |
| 20260509021116 | 23 | 158 | 9.7 | 12.9 | 0.00 | 1.98 | 1.98 | 81 | 1008.3 |
| 20260509020118 | 23 | 225 | 3.2 | 6.4 | 0.00 | 1.98 | 1.98 | 81 | 1008.5 |
| 20260509015117 | 23 | 180 | 6.4 | 11.3 | 0.00 | 1.98 | 1.98 | 81 | 1008.2 |
| 20260509014117 | 23 | 180 | 4.8 | 8.0 | 0.00 | 1.98 | 1.98 | 81 | 1008.2 |
| 20260509013117 | 23 | 180 | 6.4 | 11.3 | 0.00 | 1.98 | 1.98 | 80 | 1008.5 |
| 20260509012117 | 23 | 180 | 4.8 | 8.0 | 0.00 | 1.98 | 1.98 | 80 | 1008.5 |
| 20260509011116 | 23 | 158 | 1.6 | 4.8 | 0.00 | 1.98 | 1.98 | 80 | 1008.5 |
| 20260509010117 | 23 | 180 | 3.2 | 4.8 | 0.00 | 1.98 | 1.98 | 80 | 1008.3 |
| 20260509005117 | 23 | 180 | 4.8 | 6.4 | 0.00 | 1.98 | 1.98 | 79 | 1008.2 |
| 20260509004138 | 23 | 180 | 6.4 | 11.3 | 0.00 | 1.98 | 1.98 | 78 | 1008.1 |
| 20260509003117 | 23 | 180 | 6.4 | 11.3 | 0.00 | 1.98 | 1.98 | 78 | 1007.9 |
| 20260509002116 | 24 | 203 | 1.6 | 4.8 | 0.00 | 1.98 | 1.98 | 77 | 1007.9 |
| 20260509001137 | 24 | 180 | 9.7 | 14.5 | 0.00 | 1.98 | 1.98 | 76 | 1007.7 |
| 20260509000137 | 24 | 180 | 12.9 | 16.1 | 0.00 | 1.98 | 1.98 | 75 | 1007.9 |
| 20260508235136 | 24 | 180 | 6.4 | 11.3 | 0.00 | 1.98 | 1.98 | 76 | 1008.0 |
| 20260508234126 | 24 | 180 | 9.7 | 17.7 | 0.00 | 1.98 | 1.98 | 75 | 1008.2 |
| 20260508233317 | 24 | 180 | 11.3 | 17.7 | 0.00 | 1.98 | 1.98 | 75 | 1008.3 |
| 20260508232317 | 24 | 203 | 8.0 | 12.9 | 0.00 | 1.98 | 1.98 | 74 | 1008.4 |
| 20260508231316 | 25 | 158 | 9.7 | 14.5 | 0.00 | 1.98 | 1.98 | 73 | 1008.4 |
| 20260508230316 | 25 | 158 | 8.0 | 11.3 | 0.00 | 1.98 | 1.98 | 72 | 1008.4 |
| 20260508225317 | 25 | 180 | 9.7 | 14.5 | 0.00 | 1.98 | 1.98 | 70 | 1008.5 |
| 20260508224316 | 25 | 158 | 3.2 | 6.4 | 0.00 | 1.98 | 1.98 | 71 | 1008.4 |
| 20260508223337 | 25 | 158 | 4.8 | 8.0 | 0.00 | 1.98 | 1.98 | 69 | 1008.6 |
| 20260508222316 | 25 | 158 | 8.0 | 14.5 | 0.00 | 1.98 | 1.98 | 69 | 1008.6 |
| 20260508221317 | 26 | 225 | 6.4 | 12.9 | 0.00 | 1.98 | 1.98 | 68 | 1008.6 |
| 20260508220338 | 25 | 203 | 4.8 | 9.7 | 0.00 | 1.98 | 1.98 | 68 | 1008.5 |
| 20260508215316 | 25 | 158 | 6.4 | 11.3 | 0.00 | 1.98 | 1.98 | 69 | 1008.5 |
| 20260508214316 | 25 | 180 | 14.5 | 19.3 | 0.00 | 1.98 | 1.98 | 69 | 1008.6 |
| 20260508213317 | 25 | 180 | 9.7 | 19.3 | 0.00 | 1.98 | 1.98 | 69 | 1008.7 |
| 20260508212316 | 24 | 180 | 8.0 | 14.5 | 0.00 | 1.98 | 1.98 | 70 | 1008.9 |
| 20260508211316 | 25 | 113 | 3.2 | 8.0 | 0.00 | 1.98 | 1.98 | 71 | 1009.0 |
| 20260508210316 | 24 | 180 | 8.0 | 11.3 | 0.00 | 1.98 | 1.98 | 70 | 1008.8 |
| 20260508205317 | 25 | 158 | 6.4 | 11.3 | 0.00 | 1.98 | 1.98 | 70 | 1008.9 |
| 20260508204317 | 24 | 180 | 3.2 | 9.7 | 0.00 | 1.98 | 1.98 | 72 | 1009.5 |
| 20260508203316 | 23 | 158 | 4.8 | 9.7 | 0.00 | 1.98 | 1.98 | 72 | 1010.1 |
| 20260508202316 | 23 | 158 | 6.4 | 9.7 | 0.00 | 1.98 | 1.98 | 71 | 1010.8 |
| 20260508201316 | 23 | 203 | 3.2 | 6.4 | 0.00 | 1.98 | 1.98 | 70 | 1010.7 |
| 20260508200316 | 24 | 180 | 6.4 | 9.7 | 0.00 | 1.98 | 1.98 | 71 | 1010.7 |
| 20260508195317 | 24 | 158 | 6.4 | 9.7 | 0.00 | 1.98 | 1.98 | 71 | 1010.7 |
| 20260508194316 | 24 | 180 | 8.0 | 14.5 | 0.00 | 1.98 | 1.98 | 71 | 1010.7 |
| 20260508193316 | 24 | 158 | 6.4 | 9.7 | 0.00 | 1.98 | 1.98 | 72 | 1010.7 |
| 20260508192316 | 24 | 158 | 4.8 | 6.4 | 0.00 | 1.98 | 1.98 | 72 | 1011.0 |
| 20260508191316 | 24 | 180 | 11.3 | 14.5 | 0.00 | 1.98 | 1.98 | 71 | 1011.0 |
| 20260508190316 | 25 | 180 | 6.4 | 9.7 | 0.00 | 1.98 | 1.98 | 71 | 1011.0 |
| 20260508185317 | 25 | 203 | 4.8 | 8.0 | 0.00 | 1.98 | 1.98 | 68 | 1011.0 |
| 20260508184316 | 26 | 158 | 4.8 | 9.7 | 0.00 | 1.98 | 1.98 | 68 | 1011.1 |
| 20260508183317 | 25 | 158 | 1.6 | 3.2 | 0.00 | 1.98 | 1.98 | 68 | 1011.2 |
| 20260508182336 | 26 | 135 | 4.8 | 8.0 | 0.00 | 1.98 | 1.98 | 66 | 1011.3 |
| 20260508181316 | 25 | 180 | 1.6 | 8.0 | 0.00 | 1.98 | 1.98 | 67 | 1011.7 |
| 20260508180316 | 25 | 158 | 4.8 | 6.4 | 0.00 | 1.98 | 1.98 | 66 | 1011.9 |
| 20260508175316 | 25 | 158 | 4.8 | 8.0 | 0.00 | 1.98 | 1.98 | 67 | 1012.1 |
| 20260508174316 | 25 | 180 | 12.9 | 16.1 | 0.00 | 1.98 | 1.98 | 65 | 1012.2 |
| 20260508173336 | 24 | 203 | 6.4 | 11.3 | 0.00 | 1.98 | 1.98 | 66 | 1012.3 |
| 20260508172316 | 24 | 158 | 4.8 | 6.4 | 0.00 | 1.98 | 1.98 | 67 | 1012.4 |
| 20260508171316 | 23 | 135 | 3.2 | 4.8 | 0.00 | 1.98 | 1.98 | 68 | 1012.4 |
| 20260508170317 | 23 | 158 | 6.4 | 9.7 | 0.00 | 1.98 | 1.98 | 69 | 1012.7 |
| 20260508165316 | 22 | 180 | 4.8 | 8.0 | 0.00 | 1.98 | 1.98 | 69 | 1013.1 |
| 20260508164317 | 22 | 180 | 4.8 | 9.7 | 0.00 | 1.98 | 1.98 | 69 | 1013.3 |
| 20260508163336 | 22 | 158 | 3.2 | 6.4 | 0.00 | 1.98 | 1.98 | 70 | 1013.5 |
| 20260508162316 | 22 | 158 | 8.0 | 16.1 | 0.00 | 1.98 | 1.98 | 69 | 1013.7 |
| 20260508161316 | 21 | 158 | 1.6 | 3.2 | 0.00 | 1.98 | 1.98 | 73 | 1013.8 |
| 20260508160317 | 21 | 225 | 6.4 | 9.7 | 0.00 | 1.98 | 1.98 | 72 | 1013.8 |
| 20260508155316 | 20 | 158 | 4.8 | 8.0 | 0.00 | 1.98 | 1.98 | 75 | 1014.1 |
| 20260508154316 | 20 | 180 | 6.4 | 9.7 | 0.00 | 1.98 | 1.98 | 74 | 1014.0 |
| 20260508153317 | 20 | 180 | 6.4 | 11.3 | 0.00 | 1.98 | 1.98 | 76 | 1014.1 |
| 20260508152316 | 20 | 180 | 6.4 | 9.7 | 0.00 | 1.98 | 1.98 | 80 | 1014.1 |
| 20260508151316 | 18 | 180 | 6.4 | 8.0 | 0.00 | 1.98 | 1.98 | 90 | 1014.4 |
| 20260508150316 | 17 | 158 | 4.8 | 8.0 | 0.00 | 1.98 | 1.98 | 97 | 1014.5 |
| 20260508145316 | 17 | 203 | 4.8 | 8.0 | 0.00 | 1.98 | 1.98 | 97 | 1014.3 |
| 20260508144316 | 16 | 180 | 3.2 | 8.0 | 0.00 | 1.98 | 1.98 | 97 | 1014.3 |
| 20260508143315 | 16 | 180 | 3.2 | 6.4 | 0.00 | 1.98 | 1.98 | 98 | 1014.6 |
| 20260508142316 | 16 | 158 | 1.6 | 3.2 | 0.00 | 1.98 | 1.98 | 98 | 1014.6 |
| 20260508141316 | 16 | 158 | 6.4 | 9.7 | 0.00 | 1.98 | 1.98 | 98 | 1014.6 |
| 20260508140316 | 16 | 158 | 8.0 | 11.3 | 0.00 | 1.98 | 1.98 | 98 | 1014.6 |
| 20260508135316 | 16 | 158 | 3.2 | 6.4 | 0.00 | 1.98 | 1.98 | 98 | 1014.6 |
| 20260508134315 | 16 | 0.0 | 1.6 | 0.00 | 1.98 | 1.98 | 98 | 1014.7 | |
| 20260508133316 | 16 | 158 | 4.8 | 6.4 | 0.03 | 1.98 | 1.98 | 98 | 1014.4 |
| 20260508132315 | 16 | 135 | 3.2 | 8.0 | 0.05 | 1.98 | 1.98 | 98 | 1014.5 |
| 20260508131316 | 16 | 158 | 1.6 | 3.2 | 0.33 | 1.98 | 1.98 | 98 | 1014.4 |
| 20260508130316 | 16 | 0.0 | 0.0 | 0.36 | 1.98 | 1.98 | 98 | 1014.6 | |
| 20260508125336 | 16 | 0.0 | 0.0 | 0.36 | 1.98 | 1.98 | 98 | 1014.9 | |
| 20260508124315 | 16 | 0.0 | 0.0 | 0.36 | 1.98 | 1.98 | 98 | 1014.7 | |
| 20260508123316 | 15 | 0.0 | 1.6 | 0.33 | 1.96 | 1.96 | 98 | 1014.7 | |
| 20260508122316 | 15 | 68 | 1.6 | 1.6 | 0.30 | 1.93 | 1.93 | 98 | 1014.8 |
| 20260508121335 | 15 | 0.0 | 1.6 | 0.03 | 1.65 | 1.65 | 98 | 1015.3 | |
| 20260508120315 | 15 | 180 | 3.2 | 8.0 | 0.00 | 1.63 | 1.63 | 98 | 1014.7 |
| 20260508115336 | 15 | 180 | 3.2 | 6.4 | 0.00 | 1.63 | 1.63 | 98 | 1014.7 |
| 20260508114316 | 16 | 158 | 3.2 | 6.4 | 0.46 | 1.63 | 1.63 | 98 | 1014.8 |
| 20260508113316 | 15 | 158 | 1.6 | 3.2 | 0.94 | 1.63 | 1.63 | 98 | 1014.8 |